STARLINK-32571, 62055

Orbit data source: Space-Track

STARLINK-32571, 62055 is a payload satellite owned by SpaceX/Seattle (US) in LEO that was launched on Thu, 21 Nov 2024 UTC via an FALCON 9 launch vehicle from the Air Force Eastern Test Range (AFETR). Payload-class satellites include a variety of spacecraft equipped with specific instruments for various scientific and technological missions. These include communications satellites like Starlink; space stations such as the ISS; scientific satellites like the Hubble; Earth observation satellites from companies like Planet Labs, Umbra, and HawkEye 360; GPS; miniature CubeSats for education and research; and military/defense satellites.

Loading next visibility...
Identifier
62055, 2024-216Z
Orbit
LEO
Country
Flag of USUS
Related business
Manufacturer
SpaceX/Seattle
Mission
Operational Commercial Communications
Bus & Motor
STARLINK V2M, Unknown motor
Mass
730 kg wet, ~700 kg dry
Launch date (UTC)
2024-11-21 (1 year ago)
Launch vehicle
FALCON 9
Launch site
Air Force Eastern Test Range (AFETR)
Object type
Payload
Rocket body
Debris
Shape & HBR
Box + 2 Pan, 17.7 m
Radar Cross Section
33.884 m², Large (>1 m²)

Expand to show TLE details & history
Last TLE update: 20 hours ago

TLE from 20 hours ago
0 STARLINK-32571
1 62055U 24216Z   25348.17649780  .00003529  00000-0  13779-3 0  9996
2 62055  43.0021  18.7251 0001061 259.5736 100.4996 15.27562548 60908
Epoch: 2025-12-14T04:14Z
TLE epoch observation values (Epoch: 2025-12-14T04:14:09.409Z)
Latitude
-0.00004°
Longitude
-127.90732°
Altitude
483.01 km
Speed
7.626 km/s
True Right ascension
01h 14m 54s
True Declination
0° 00' 00"
Sunlit
Object was in full shadow at epoch
Visualization orbit readout
Latitude
Unknown
Longitude
Unknown
Altitude
Unknown
Speed
Unknown
Apparent Right ascension
Unknown
Apparent Declination
Unknown
Sunlit
N/A
Visualization observer readout
Local Sidereal Time
23:03:04
Azimuth
Unknown
Elevation
Unknown
Doppler factor
Unknown
Orbital elements
Apogee altitude
485.774 km
Perigee altitude
484.318 km
Semi-major axis
6,863.183 km
Eccentricity
0.00011
Inclination
43.0021°
RAAN
18.7251°
Arg. of periapsis
259.5736°
True anomaly
100.51155°
Mean anomaly
100.4996°
Eccentric anomaly
100.50558°
Mean motion
3.81729 °/min
Orbital period
94.31 mins
BSTAR
0.00013779
Loading maneuver chart data...
Computing Atmospheric mass density...
Loading historical data...
Loading historical data...
Loading historical data...
Loading historical data...
Loading historical data...
Loading historical data...
Loading historical data...

Documentation

Showing up to 5 results
|